User: anonymous   Login
Location: Anjeux
(47.8815°N, 6.2076°E)
Time: 19:01:39
(UTC+00:00)
Language:

ARIANE 5 R/B - Orbit

View from above orbital plane
View from above orbital plane
View from above satellite
View from above satellite

Ground track
Ground track

The orbit data is extracted from the following two-line orbital elements,

1 27387U 02009B   21136.47006971 -.00000016  00000-0  10072-4 0  9997
2 27387  98.6579  96.6028 0031739 212.5733 147.3495 14.36017760  6633
Epoch (UTC): 16 May 2021 11:16:54
Eccentricity: 0.0031739
inclination: 98.6579°
perigee height: 749 km
apogee height: 794 km
right ascension of ascending node: 96.6028°
argument of perigee: 212.5733°
revolutions per day: 14.36017760
mean anomaly at epoch: 147.3495°
orbit number at epoch: 663

The dashed part of the orbit path shows where the satellite is in the earth's shadow,  

DLR